Location: Unspecified
(0.0000°N, 0.0000°E)
Time: 13:48:24
(UTC+00:00)

Hubble Space Telescope - Pass Details

Date: 13 April 2021
Orbit: 535 x 539 km, 28.5° (Epoch: 16 April)

Event Time Altitude Azimuth Distance (km) Brightness Sun altitude
Rises 18:31:17 0° 227° (SW) 2,675 4.9 -7.6°
Reaches altitude 10° 18:33:39 10° 219° (SW) 1,783 3.8 -8.2°
Maximum altitude 18:37:30 38° 150° (SSE) 827 1.4 -9.1°
Enters shadow 18:40:54 13° 84° (E) 1,620 2.6 -10.0°
